Location: Unspecified
(44.0704°N, 88.6889°W)
Time: 00:30:52
(UTC+02:00)

Okean 3 - Visible Passes

Search period start: 14 June 2021 00:00
Search period end: 24 June 2021 00:00
Orbit: 575 x 601 km, 82.5° (Epoch: 13 June)

Date Brightness Start Highest point End Pass type
(mag) Time Alt. Az. Time Alt. Az. Time Alt. Az.
14 Jun 5.3 04:19:01 10° SW 04:22:48 34° WNW 04:26:39 10° N visible
15 Jun 6.0 04:27:11 10° SW 04:30:34 24° WNW 04:33:58 10° NNW visible
16 Jun 6.4 04:35:38 10° WSW 04:38:22 17° WNW 04:41:07 10° NNW visible
17 Jun 6.7 04:44:38 10° W 04:46:12 12° WNW 04:47:47 10° NW visible
